Flag for Germany Weather past 2 weeks in Bruchsal, Baden-Württemberg, Germany

Now
75 °F

Sunny.


Feels Like: 78 °F
Forecast: 69 / 93 °F
Wind: 2 mph from North

Location: Baden Wurttemberg - Neuostheim

Current Time: Jul 1, 2015 at 9:20:52 AM

Latest Report: Jul 1, 2015 at 8:50 AM


Visibility: 10 mi

Pressure: 30.09 "Hg

Humidity: 47%

Dew point: 54 °F

Location of BruchsalLocation

Historic Weather in Bruchsal — Graph

°F

Bruchsal temperature yesterday

Maximum temperature yesterday: 88 °F (at 6:20 PM)
Minimum temperature yesterday: 63 °F (at 5:50 AM)
Average temperature yesterday: 78 °F

Past Weeks' High & Low Weather Summary

 TemperatureHumidityPressure
High88 °F (Jun 30, 6:20 PM)100% (Jun 18, 10:20 AM)30.27 "Hg (Jun 18, 10:20 AM)
Low50 °F (Jun 17, 5:20 AM)25% (Jun 30, 6:20 PM)29.74 "Hg (Jun 22, 9:20 PM)
Average66 °F60%30.09 "Hg
* Reported Jun 16 7:20 AM — Jul 1 7:50 AM, Bruchsal, Weather by CustomWeather, © 2015

Note: Actual official high and low records may vary slightly from our data, if they occured in-between our weather recording intervals... More about our weather records

Advertising

Bruchsal weather history for previous 24 hours

 ConditionsComfort  
Time TempWeatherWind HumidityBarometerVisibility
7:50 AM
Wed, Jul 1
72 °FSunny.2 mph57%30.09 "Hg10 mi
7:20 AM70 °FSunny.2 mph60%30.09 "Hg10 mi
6:50 AM68 °FSunny.2 mph64%30.09 "Hg10 mi
6:20 AM66 °FClear.2 mph68%30.09 "Hg10 mi
5:50 AM63 °FClear.2 mph77%30.09 "Hg10 mi
5:20 AM63 °FClear.2 mph77%30.09 "Hg10 mi
3:50 AM64 °FClear.2 mph68%30.09 "Hg10 mi
9:50 PM
Tue, Jun 30
81 °FSunny.5 mph30%30.07 "Hg10 mi
9:20 PM81 °FSunny.6 mph28%30.07 "Hg10 mi
8:50 PM82 °FPassing clouds.6 mph28%30.07 "HgN/A
8:20 PM84 °FSunny.7 mph27%30.07 "Hg10 mi
7:50 PM84 °FPassing clouds.8 mph27%30.07 "HgN/A
6:50 PM86 °FPassing clouds.5 mph29%30.07 "HgN/A
6:20 PM88 °FSunny.2 mph25%30.07 "Hg10 mi
5:50 PM86 °FSunny.3 mph29%30.07 "Hg10 mi
4:50 PM86 °FSunny.3 mph27%30.09 "Hg10 mi
4:20 PM86 °FSunny.3 mph29%30.09 "Hg10 mi
3:50 PM84 °FSunny.5 mph31%30.09 "Hg10 mi
2:50 PM84 °FSunny.5 mph31%30.12 "Hg10 mi
2:20 PM82 °FSunny.3 mph30%30.12 "Hg10 mi
1:50 PM82 °FPassing clouds.7 mph30%30.12 "HgN/A
1:20 PM81 °FSunny.3 mph37%30.15 "Hg10 mi
12:50 PM81 °FPassing clouds.5 mph39%30.15 "HgN/A
12:20 PM79 °FPassing clouds.6 mph42%30.15 "HgN/A
11:50 AM79 °FPassing clouds.6 mph42%30.15 "HgN/A
11:20 AM77 °FPassing clouds.7 mph47%30.15 "HgN/A
10:50 AM77 °FSunny.5 mph47%30.15 "Hg10 mi
10:20 AM75 °FPassing clouds.5 mph50%30.15 "HgN/A
9:50 AM75 °FPassing clouds.6 mph50%30.15 "HgN/A
9:20 AM73 °FPassing clouds.5 mph53%30.15 "HgN/A
Weather by CustomWeather, © 2015

See weather overviewHow to use our weather pages